This is the latest recevied weather packets stored in our database for station/object K8WEH. If no packets are shown the sender has not sent any weather packets the latest 10 day(s).
| Time | Temp. | Humidity | Pressure | Rain* | Wind** | Luminosity | Snow |
|---|---|---|---|---|---|---|---|
| 1777355148 | 15.56° C | 39% | 1011.8 hPa | 0.25 mm | - | - | - |
| 1777354844 | 15.56° C | 39% | 1011.9 hPa | 0.25 mm | - | - | - |
| 1777354544 | 15.56° C | 39% | 1012 hPa | 0.25 mm | - | - | - |
| 1777354249 | 15.56° C | 39% | 1012.1 hPa | 0.25 mm | - | - | - |
| 1777353943 | 15.56° C | 38% | 1012.2 hPa | 0.25 mm | - | - | - |
| 1777353642 | 15.56° C | 38% | 1012.3 hPa | 0.25 mm | - | - | - |
| 1777353342 | 15.56° C | 38% | 1012.3 hPa | 0 mm | - | - | - |
| 1777353041 | 15.56° C | 38% | 1012.3 hPa | 0 mm | - | - | - |
| 1777352740 | 15.56° C | 38% | 1012.6 hPa | 0.25 mm | - | - | - |
| 1777352446 | 15.56° C | 38% | 1013.1 hPa | 0.25 mm | - | - | - |
| 1777352137 | 15.56° C | 38% | 1013.2 hPa | 0.25 mm | - | - | - |
| 1777351837 | 15.56° C | 38% | 1013.3 hPa | 0.25 mm | - | - | - |
| 1777351536 | 16.11° C | 39% | 1013.4 hPa | 0.76 mm | - | - | - |
| 1777351235 | 16.11° C | 39% | 1013.5 hPa | 1.27 mm | - | - | - |
| 1777350935 | 16.11° C | 39% | 1013.7 hPa | 1.78 mm | - | - | - |
| 1777350635 | 16.11° C | 39% | 1013.8 hPa | 2.54 mm | - | - | - |
| 1777350336 | 16.11° C | 40% | 1013.9 hPa | 3.3 mm | - | - | - |
| 1777350034 | 16.11° C | 40% | 1013.7 hPa | 3.56 mm | - | - | - |
| 1777349733 | 16.11° C | 40% | 1013.3 hPa | 4.32 mm | - | - | - |
| 1777349432 | 16.11° C | 40% | 1014.1 hPa | 4.57 mm | - | - | - |
| 1777349131 | 16.11° C | 40% | 1014.3 hPa | 4.57 mm | - | - | - |
| 1777348836 | 16.11° C | 41% | 1014.5 hPa | 4.83 mm | - | - | - |
| 1777348530 | 16.11° C | 40% | 1014.3 hPa | 5.08 mm | - | - | - |
| 1777348230 | 16.67° C | 40% | 1014.7 hPa | 5.33 mm | - | - | - |
| 1777347930 | 16.67° C | 40% | 1015.1 hPa | 5.33 mm | - | - | - |
* Rain latest hour (hover to see other rain measurements)
** Current wind speed in m/s (hover to see current wind gust speed)